ARIANE 3 DEB, 33538

Orbit data source: Space-Track

ARIANE 3 DEB, 33538 is space debris in HEO originally from a launch on Thu, 08 Sep 1988 UTC launched from the French Guiana (FRGUI). Debris objects in space refer to the collection of defunct objects orbiting the Earth. Examples of debris include non-operational satellites, rocket bodies, and fragments generated from explosions, collisions, or faulty payload assembly.

Loading next visibility...
Identifier
33538, 1988-081N
Orbit
HEO
Country
Flag of FRFR
Related business
Manufacturer
Unknown
Mission
Spacecraft
Bus & Motor
Unknown
Mass
Unknown
Launch date (UTC)
1988-09-08 (37 years ago)
Launch vehicle
Unknown
Launch site
French Guiana (FRGUI)
Object type
Payload
Rocket body
Debris
Shape & HBR
Unknown shape, 1.1 m
Radar Cross Section
Small (<0.1 m²)

Expand to show TLE details & history
Last TLE update: 3 days ago

TLE from 3 days ago
0 ARIANE 3 DEB
1 33538U 88081N   26031.55104304  .00000081  00000-0  66227-3 0  9996
2 33538   7.5462  42.6590 7198280 210.3675  74.4413  2.24400956167417
Epoch: 2026-01-31T13:13Z
TLE epoch observation values (Epoch: 2026-01-31T13:13:30.118Z)
Latitude
0.0001°
Longitude
73.67388°
Altitude
25,012.357 km
Speed
3.037 km/s
True Right ascension
02h 51m 17s
True Declination
0° 00' 00"
Sunlit
Object was in daylight at epoch
Visualization orbit readout
Latitude
Unknown
Longitude
Unknown
Altitude
Unknown
Speed
Unknown
Apparent Right ascension
Unknown
Apparent Declination
Unknown
Sunlit
N/A
Visualization observer readout
Local Sidereal Time
12:17:15
Azimuth
Unknown
Elevation
Unknown
Doppler factor
Unknown
Orbital elements
Apogee altitude
36,015.015 km
Perigee altitude
528.004 km
Semi-major axis
24,649.647 km
Eccentricity
0.71983
Inclination
7.5462°
RAAN
42.659°
Arg. of periapsis
210.3675°
True anomaly
149.8333°
Mean anomaly
74.4413°
Eccentric anomaly
112.53525°
Mean motion
0.56082 °/min
Orbital period
641.91 mins
BSTAR
0.00066227
Loading maneuver chart data...
Computing Atmospheric mass density...
Loading historical data...
Loading historical data...
Loading historical data...
Loading historical data...
Loading historical data...
Loading historical data...
Loading historical data...

Documentation

Showing up to 5 results
|